Regional Weather Roundup
Issued by NWS

Home | Current Version | Previous Version | Text Only | Print | Product List | Glossary Off
Versions: 1 2 3 4 5 6 7 8 9 10 11 12 13 14 15 16 17 18 19 20 21 22 23 24 25 26 27 28 29 30 31 32 33 34 35 36 37 38 39 40 41 42 43 44 45 46 47 48 49 50

000
ASUS43 KFSD 151310
RWRSD

WEATHER ROUNDUP FOR SOUTH DAKOTA
NATIONAL WEATHER SERVICE SIOUX FALLS SD
700 AM CST FRI DEC 15 2017

NOTE: "FAIR" INDICATES FEW OR NO CLOUDS BELOW 12,000 FEET WITH NO
SIGNIFICANT WEATHER AND/OR OBSTRUCTIONS TO VISIBILITY.


SDZ001>005-009-010-012>017-151400-
NORTHWEST AND NORTH CENTRAL SOUTH DAKOTA

CITY           SKY/WX    TMP DP  RH WIND       PRES   REMARKS
BUFFALO          N/A     29  21  72 SW12      29.73F WCI  19
FAITH            N/A     23  20  88 SW8       29.83F WCI  14
MOBRIDGE       CLOUDY    27  23  85 CALM      29.84F
$$

SDZ012>016-024>037-041>051-057-063-072>074-151400-
SOUTHWEST AND SOUTH CENTRAL SOUTH DAKOTA

CITY           SKY/WX    TMP DP  RH WIND       PRES   REMARKS
RAPID CTY ARPT CLOUDY    22  10  60 CALM      29.86F
PIERRE         CLOUDY    25  22  88 SW7       29.89F WCI  17
CUSTER         CLOUDY    33   8  35 SW9G20    29.84F WCI  25
ELLSWORTH AFB  CLOUDY    22  13  68 W8        29.83F WCI  13
PHILIP         PTCLDY    23  19  85 W9        29.90F WCI  13
PINE RIDGE     CLOUDY    26  19  74 W10       29.93F WCI  16
SPEARFISH      FAIR      37  12  35 W14       29.85R
WINNER         FAIR      27  20  75 SW7       29.91F WCI  19
$$

SDZ004>011-016>023-039-040-151400-
NORTHEAST SOUTH DAKOTA

CITY           SKY/WX    TMP DP  RH WIND       PRES   REMARKS
ABERDEEN       CLOUDY    29  25  85 W7        29.87F WCI  22
WATERTOWN      CLOUDY    27  26  96 W6        29.85F WCI  20
BROOKINGS      CLOUDY    30  26  85 W10       29.88F WCI  21
SISSETON         N/A     24  22  91 CALM      29.88F
$$

SDZ017-020-022-023-036>040-048>070-151400-
SOUTHEAST SOUTH DAKOTA

CITY           SKY/WX    TMP DP  RH WIND       PRES   REMARKS
SIOUX FALLS    CLOUDY    32  28  85 W9        29.92F WCI  24
HURON          CLOUDY    30  26  85 W9        29.90F WCI  22
CHAMBERLAIN    CLOUDY    28  25  89 CALM      29.91F
MITCHELL       CLOUDY    30  24  78 W10       29.94F WCI  21
YANKTON        MOCLDY    32  26  78 SW9       29.97F WCI  24
$$

ABBREVIATIONS USED IN REMARKS
   TC - TEMPERATURE IN CELSIUS
  WCI - WIND CHILL INDEX
   HX - HEAT INDEX
  VSB - VISIBILITY





USA.gov is the U.S. government's official web portal to all federal, state and local government web resources and services.